Date String (YYYY-MM-DD hh:mm:ss) UTC,Instrument flags,Ambient pressure (hPa),Sample flow (lpm),Bypass flow (lpm),Sample temperature (°C),Ambient temperature (°C),ASC tube jacket temperature (°C),LED temperature (°C),Box temperature (°C),Sample RH (%),Span deviation,Mass concentration (μg/m³),Mass concentration (μg/m³),Mass concentration (μg/m³)
DateTimeUTC,F1_M11,P_M11,Q1_M11,Q2_M11,T1_M11,T2_M11,T3_M11,T4_M11,T5_M11,U1_M11,ZSPAN_M11,X0_M11,X2_M11,X1_M11
2022-06-25 15:00:00,,0835.9,4.99,0.00,30.3,29.3,00.0,39.2,32.1,20.1,0000.0,0005.15,0001.72,0001.12
2022-06-25 15:01:00,,0835.9,5.01,0.00,30.3,29.3,00.0,39.2,32.1,20.2,0000.0,0005.12,0001.70,0001.12
2022-06-25 15:02:00,,0836.0,5.00,0.00,30.3,29.3,00.0,39.2,32.1,20.1,0000.0,0005.41,0001.70,0001.13
2022-06-25 15:03:00,,0835.9,4.98,0.00,30.4,29.3,00.0,39.2,32.1,20.2,0000.0,0005.56,0001.68,0001.15
2022-06-25 15:04:00,,0835.9,5.00,0.00,30.4,29.3,00.0,39.2,32.2,20.2,0000.0,0005.88,0001.65,0001.16
2022-06-25 15:05:00,,0835.9,5.00,0.00,30.4,29.3,00.0,39.2,32.2,20.2,0000.0,0005.66,0001.63,0001.16
2022-06-25 15:06:00,,0835.9,5.01,0.00,30.4,29.3,00.0,39.2,32.2,20.2,0000.0,0005.49,0001.61,0001.18
2022-06-25 15:07:00,,0835.8,4.99,0.00,30.4,29.3,00.0,39.2,32.2,20.1,0000.0,0005.26,0001.60,0001.19
2022-06-25 15:08:00,,0835.8,5.00,0.00,30.4,29.3,00.0,39.2,32.2,20.1,0000.0,0005.12,0001.59,0001.20
2022-06-25 15:09:00,,0835.9,5.00,0.00,30.4,29.3,00.0,39.2,32.2,20.3,0000.0,0004.49,0001.59,0001.20
2022-06-25 15:10:00,,0835.9,5.01,0.00,30.4,29.3,00.0,39.2,32.2,20.4,0000.0,0004.59,0001.58,0001.20
2022-06-25 15:11:00,,0835.9,5.00,0.00,30.4,29.4,00.0,39.2,32.2,20.6,0000.0,0005.52,0001.60,0001.20
2022-06-25 15:12:00,,0835.9,5.00,0.00,30.4,29.4,00.0,39.2,32.2,20.5,0000.0,0005.73,0001.66,0001.22
2022-06-25 15:13:00,,0835.9,5.00,0.00,30.4,29.4,00.0,39.2,32.2,20.5,0000.0,0005.43,0001.71,0001.23
2022-06-25 15:14:00,,0835.9,4.99,0.00,30.4,29.4,00.0,39.2,32.2,20.7,0000.0,0005.24,0001.73,0001.22
2022-06-25 15:15:00,,0835.9,5.00,0.00,30.4,29.4,00.0,39.3,32.2,20.8,0000.0,0004.72,0001.75,0001.21
2022-06-25 15:16:00,,0835.9,4.99,0.00,30.4,29.4,00.0,39.3,32.2,20.8,0000.0,0004.55,0001.77,0001.22
2022-06-25 15:17:00,,0835.9,5.00,0.00,30.4,29.4,00.0,39.3,32.2,20.7,0000.0,0004.78,0001.83,0001.22
2022-06-25 15:18:00,,0835.9,5.00,0.00,30.4,29.4,00.0,39.3,32.2,20.6,0000.0,0005.05,0001.87,0001.22
2022-06-25 15:19:00,,0835.9,5.00,0.00,30.4,29.4,00.0,39.3,32.3,20.6,0000.0,0005.01,0001.86,0001.22
2022-06-25 15:20:00,,0835.9,5.00,0.00,30.5,29.4,00.0,39.3,32.3,20.8,0000.0,0005.00,0001.85,0001.22
2022-06-25 15:21:00,,0835.9,5.01,0.00,30.5,29.4,00.0,39.3,32.3,21.0,0000.0,0004.79,0001.87,0001.23
2022-06-25 15:22:00,,0835.9,4.99,0.00,30.5,29.4,00.0,39.3,32.3,20.6,0000.0,0004.28,0001.87,0001.23
2022-06-25 15:23:00,,0835.9,5.00,0.00,30.5,29.4,00.0,39.3,32.3,20.4,0000.0,0004.41,0001.83,0001.23
2022-06-25 15:24:00,,0835.9,5.00,0.00,30.5,29.4,00.0,39.3,32.3,20.4,0000.0,0004.63,0001.88,0001.23
2022-06-25 15:25:00,,0835.9,5.00,0.00,30.5,29.5,00.0,39.3,32.3,20.3,0000.0,0004.65,0001.89,0001.23
2022-06-25 15:26:00,,0836.0,5.00,0.00,30.5,29.5,00.0,39.3,32.3,20.3,0000.0,0005.25,0001.92,0001.24
2022-06-25 15:27:00,,0836.0,4.99,0.00,30.5,29.5,00.0,39.3,32.3,20.2,0000.0,0005.37,0001.89,0001.24
2022-06-25 15:28:00,,0836.1,5.00,0.00,30.5,29.5,00.0,39.3,32.3,20.1,0000.0,0005.28,0001.87,0001.24
2022-06-25 15:29:00,,0836.0,5.01,0.00,30.5,29.5,00.0,39.3,32.3,20.3,0000.0,0004.97,0001.83,0001.25
2022-06-25 15:30:00,,0836.0,4.99,0.00,30.5,29.5,00.0,39.3,32.3,20.4,0000.0,0004.93,0001.82,0001.24
2022-06-25 15:31:00,,0836.0,5.00,0.00,30.5,29.5,00.0,39.3,32.4,20.3,0000.0,0004.82,0001.78,0001.22
2022-06-25 15:32:00,,0835.9,5.00,0.00,30.5,29.5,00.0,39.3,32.4,20.2,0000.0,0004.73,0001.77,0001.22
2022-06-25 15:33:00,,0836.0,5.00,0.00,30.5,29.5,00.0,39.4,32.4,20.0,0000.0,0004.51,0001.75,0001.22
2022-06-25 15:34:00,,0836.0,5.01,0.00,30.6,29.5,00.0,39.4,32.4,19.7,0000.0,0004.03,0001.74,0001.22
2022-06-25 15:35:00,,0836.0,4.99,0.00,30.6,29.5,00.0,39.4,32.4,19.7,0000.0,0004.02,0001.70,0001.21
2022-06-25 15:36:00,,0836.0,4.99,0.00,30.6,29.6,00.0,39.4,32.4,19.3,0000.0,0004.49,0001.72,0001.21
2022-06-25 15:37:00,,0836.0,5.01,0.00,30.6,29.6,00.0,39.4,32.4,19.7,0000.0,0004.33,0001.71,0001.21
2022-06-25 15:38:00,,0836.0,5.00,0.00,30.6,29.6,00.0,39.4,32.4,19.5,0000.0,0003.94,0001.68,0001.21
2022-06-25 15:39:00,,0836.0,5.01,0.00,30.6,29.6,00.0,39.4,32.4,19.4,0000.0,0004.21,0001.66,0001.20
2022-06-25 15:40:00,,0836.1,5.01,0.00,30.6,29.6,00.0,39.4,32.4,19.5,0000.0,0004.15,0001.65,0001.20
2022-06-25 15:41:00,,0836.2,4.99,0.00,30.6,29.6,00.0,39.4,32.4,19.5,0000.0,0004.28,0001.70,0001.20
2022-06-25 15:42:00,,0836.2,5.00,0.00,30.6,29.6,00.0,39.4,32.4,19.5,0000.0,0004.45,0001.71,0001.21
2022-06-25 15:43:00,,0836.2,5.01,0.00,30.6,29.6,00.0,39.4,32.4,19.7,0000.0,0004.86,0001.72,0001.21
2022-06-25 15:44:00,,0836.2,5.00,0.00,30.6,29.6,00.0,39.4,32.4,19.4,0000.0,0004.72,0001.74,0001.22
2022-06-25 15:45:00,,0836.2,5.00,0.00,30.6,29.6,00.0,39.4,32.4,19.3,0000.0,0005.93,0001.77,0001.22
2022-06-25 15:46:00,,0836.2,4.99,0.00,30.6,29.6,00.0,39.4,32.4,19.2,0000.0,0006.08,0001.81,0001.23
2022-06-25 15:47:00,,0836.1,5.01,0.00,30.6,29.6,00.0,39.4,32.4,19.3,0000.0,0005.59,0001.73,0001.23
2022-06-25 15:48:00,,0836.1,5.01,0.00,30.6,29.6,00.0,39.5,32.4,19.3,0000.0,0005.60,0001.72,0001.23
2022-06-25 15:49:00,,0836.1,5.01,0.00,30.6,29.5,00.0,39.5,32.4,19.5,0000.0,0005.82,0001.76,0001.22
2022-06-25 15:50:00,,0836.0,4.99,0.00,30.6,29.5,00.0,39.5,32.3,19.5,0000.0,0005.64,0001.82,0001.23
2022-06-25 15:51:00,,0836.0,5.00,0.00,30.6,29.5,00.0,39.4,32.4,19.6,0000.0,0005.87,0001.85,0001.22
2022-06-25 15:52:00,,0836.1,5.01,0.00,30.6,29.5,00.0,39.4,32.4,19.5,0000.0,0006.04,0001.83,0001.23
2022-06-25 15:53:00,,0836.2,5.00,0.00,30.6,29.5,00.0,39.5,32.4,19.5,0000.0,0006.13,0001.87,0001.23
2022-06-25 15:54:00,,0836.2,5.00,0.00,30.6,29.5,00.0,39.5,32.4,19.5,0000.0,0007.00,0001.88,0001.22
2022-06-25 15:55:00,,0836.2,5.01,0.00,30.6,29.6,00.0,39.5,32.4,19.4,0000.0,0007.36,0001.87,0001.22
2022-06-25 15:56:00,,0836.2,5.01,0.00,30.6,29.6,00.0,39.5,32.4,19.5,0000.0,0006.35,0001.84,0001.22
2022-06-25 15:57:00,,0836.2,5.00,0.00,30.6,29.6,00.0,39.5,32.4,19.6,0000.0,0005.90,0001.81,0001.23
2022-06-25 15:58:00,,0836.2,5.00,0.00,30.6,29.6,00.0,39.5,32.4,19.5,0000.0,0005.96,0001.80,0001.23
2022-06-25 15:59:00,,0836.2,5.00,0.00,30.7,29.6,00.0,39.5,32.5,19.4,0000.0,0005.50,0001.81,0001.24
